Meeker, CO

6:52 PM MST on December 13, 2017 (GMT -0700)
Meeker

Weather History for KEEO - October, 2012

Change the Weather History Date:

Saturday, October 27, 2012

  Actual Average Record
Temperature  
Mean Temperature 39 °F 40 °F  
Max Temperature 49 °F 55 °F 72 °F (2001)
Min Temperature 28 °F 25 °F 10 °F (2006)
Degree Days  
Heating Degree Days 26 25  
Month to date heating degree days 538 533  
Since 1 July heating degree days 758 840  
Cooling Degree Days 0 0  
Month to date cooling degree days 0 0  
Year to date cooling degree days 325 172  
Moisture  
Dew Point 21 °F    
Average Humidity 54    
Maximum Humidity 78    
Minimum Humidity 29    
Precipitation  
Precipitation 0.00 in 0.05 in 0.22 in (1998)
Month to date precipitation 0.84 1.61  
Year to date precipitation 7.29 13.23  
Sea Level Pressure  
Sea Level Pressure 30.20 in    
Wind  
Wind Speed 3 mph (WSW)    
Max Wind Speed 15 mph    
Max Gust Speed 18 mph    
Visibility 10 miles    
Events      
T = Trace of Precipitation, MM = Missing Value Source: NWS Daily Summary

Daily Weather History Graph

Daily Weather History Graph

Search for Another Location

Airport or City:

Trip Planner

Search our weather history database for the weather conditions in past years. The results will help you decide how hot, cold, wet, or windy it might be!

Date:

Astronomy

Oct. 27, 2012 Rise Set
Actual Time 7:35 AM MDT 6:14 PM MDT
Civil Twilight 7:07 AM MDT 6:42 PM MDT
Nautical Twilight 6:35 AM MDT 7:14 PM MDT
Astronomical Twilight 6:04 AM MDT 7:45 PM MDT
Moon 5:02 PM MDT (10/27) 5:33 AM MDT (10/27)
Length of Visible Light 11h 34m
Length of Day
10h 38m
Waxing Gibbous, 96% of the Moon is Illuminated
Oct 27
Waxing Gibbous
Oct 29
Full
Nov 6
Last Quarter
Nov 13
New
Nov 20
First Quarter

Hourly Weather History & Observations

Time (MDT) Temp. Windchill Dew Point Humidity Pressure Visibility Wind Dir Wind Speed Gust Speed Precip Events Conditions
12:53 AM 28.9 °F 23.9 °F 21.0 °F 72% 30.25 in 10.0 mi SE 4.6 mph - 0.00 in   Overcast
1:53 AM 28.9 °F - 21.0 °F 72% 30.22 in 10.0 mi Calm Calm - N/A   Overcast
2:53 AM 30.0 °F 25.2 °F 21.9 °F 72% 30.21 in 10.0 mi East 4.6 mph - N/A   Overcast
3:53 AM 30.0 °F 26.5 °F 19.9 °F 66% 30.21 in 10.0 mi ENE 3.5 mph - N/A   Overcast
4:53 AM 30.0 °F - 21.9 °F 72% 30.21 in 10.0 mi Calm Calm - N/A   Overcast
5:53 AM 30.0 °F - 21.0 °F 69% 30.23 in 10.0 mi Calm Calm - N/A   Overcast
6:53 AM 30.0 °F - 23.0 °F 75% 30.25 in 10.0 mi Calm Calm - N/A   Overcast
7:53 AM 28.0 °F 24.2 °F 23.0 °F 81% 30.28 in 10.0 mi ENE 3.5 mph - N/A   Overcast
8:53 AM 30.0 °F - 21.9 °F 72% 30.29 in 10.0 mi Calm Calm - N/A   Overcast
9:53 AM 32.0 °F - 21.9 °F 66% 30.30 in 10.0 mi Calm Calm - N/A   Overcast
10:53 AM 36.0 °F - 21.9 °F 57% 30.26 in 10.0 mi Calm Calm - N/A   Clear
11:53 AM 39.9 °F - 19.9 °F 45% 30.22 in 10.0 mi Calm Calm - N/A   Clear
12:53 PM 45.0 °F - 19.9 °F 37% 30.17 in 10.0 mi Calm Calm - N/A   Clear
1:53 PM 46.0 °F 43.1 °F 19.9 °F 35% 30.14 in 10.0 mi WSW 5.8 mph - N/A   Clear
2:53 PM 46.9 °F - 19.0 °F 33% 30.11 in 10.0 mi SW 11.5 mph 18.4 mph N/A   Clear
4:53 PM 48.9 °F - 19.0 °F 31% 30.09 in 10.0 mi WSW 8.1 mph - N/A   Clear
5:53 PM 46.0 °F 42.5 °F 19.0 °F 34% 30.12 in 10.0 mi West 6.9 mph - N/A   Clear
6:53 PM 39.9 °F - 21.9 °F 49% 30.16 in 10.0 mi Calm Calm - N/A   Scattered Clouds
7:53 PM 39.9 °F 36.7 °F 24.1 °F 53% 30.19 in 10.0 mi NNE 4.6 mph - N/A   Overcast
8:53 PM 43.0 °F 39.5 °F 17.1 °F 35% 30.15 in 10.0 mi WSW 5.8 mph - N/A   Overcast
10:53 PM 42.1 °F 37.7 °F 19.0 °F 40% 30.16 in 10.0 mi West 6.9 mph - N/A   Overcast
11:53 PM 39.9 °F - 23.0 °F 51% 30.16 in 10.0 mi Calm Calm - N/A   Overcast